Preview of NWS' New Version of Forecast
This preview is not operational and should not be used for support decisions.

Regional Weather Roundup (RWR)

Issued by Philadelphia/Mt Holly (PHI)

                            
000
ASUS41 KPHI 230312
RWRPHI

REGIONAL WEATHER ROUNDUP
NATIONAL WEATHER SERVICE MOUNT HOLLY NJ
1100 PM EDT FRI MAR 22 2019

NOTE:  "FAIR" INDICATES FEW OR NO CLOUDS BELOW 12,000 FEET WITH NO
SIGNIFICANT WEATHER AND/OR OBSTRUCTIONS TO VISIBILITY.

 * = STATION DOES NOT REPORT PRECIPITATION (E.G. RAIN, SNOW, ETC.) 
        OR FOG.

NJZ015>026-230400-
SOUTHERN NEW JERSEY
  
CITY           SKY/WX    TMP DP  RH WIND       PRES   REMARKS
POMONA         MOCLDY    41  30  65 W22G35    29.64R                  
WILDWOOD*      FAIR      43  29  57 W25G37    29.71R                  
MILLVILLE      FAIR      40  27  59 W18G32    29.69R WCI  31          
WRIGHTSTOWN    FAIR      39  29  65 W16G28    29.60R WCI  31          
MOUNT HOLLY    FAIR      41  28  60 W13G25    29.64R                  
TRENTON        FAIR      39  30  70 W16G24    29.61R WCI  30          

$$
NJZ001>014-230400-
NORTHERN NEW JERSEY
  
CITY           SKY/WX    TMP DP  RH WIND       PRES   REMARKS
SUSSEX         FLURRIES  36  30  79 W8G18     29.55R WCI  30          
ANDOVER*         N/A     37  27  67 VRB6      29.56R WCI  32          
MORRISTOWN     MOCLDY    39  28  65 W13G22    29.55R WCI  32          
NEWARK         MOCLDY    41  28  60 W24G35    29.53S                  
TETERBORO      FAIR      41  31  67 W14G24    29.51R                  
CALDWELL       CLOUDY    40  29  64 W10G28    29.54R WCI  33          
SOMERVILLE     FAIR      40  30  67 W9G31     29.57R WCI  34          
ALLAIRE*       FAIR      39  30  70 W21G32    29.57R WCI  29          
TOMS RIVER*    FAIR      40  30  67 W22G32    29.60R WCI  30          

$$
PAZ043-044-047-054-055-060>062-066>071-230400-
EASTERN PENNSYLVANIA
  
CITY           SKY/WX    TMP DP  RH WIND       PRES   REMARKS
PHILADELPHIA   FAIR      42  25  50 W24G37    29.66S                  
NORTH PHILA    FAIR      41  29  62 W14       29.65R                  
BLUE BELL*     MOCLDY    37  28  70 W12G25    29.67R WCI  30          
DOYLESTOWN     FAIR      37  27  67 W16G28    29.62R WCI  28          
QUAKERTOWN*    PTCLDY    37  25  60 W9G20     29.64  WCI  31          
PERKASIE*      CLOUDY    37  27  65 W15G26    29.64R WCI  28          
POTTSTOWN      MOCLDY    38  24  57 W13G28    29.68R WCI  30          
LANCASTER      FAIR      39  25  57 W18G30    29.72R WCI  30          
COATESVILLE    CLOUDY    37  23  56 NW21G32   29.71R WCI  27          
READING        CLOUDY    39  25  57 NW25G35   29.68R WCI  28          
ALLENTOWN      MOCLDY    40  27  59 W20G30    29.62S WCI  30          
MOUNT POCONO   MIX PCPN  29  24  82 W28G40    29.52R WCI  14          
HAZLETON       CLOUDY    32  23  69 W12G20    29.63S WCI  23          
LEHIGHTON      CLOUDY    37  27  65 W14G20    29.65S WCI  29          
WILKES BARRE   LGT SNOW  32  28  85 NW15G22   29.63R FOG     WCI  22  

$$
DEZALL-MDZ008-012-015-019-020-230400-
DELAWARE AND EASTERN MARYLAND
  
CITY           SKY/WX    TMP DP  RH WIND       PRES   REMARKS
WILMINGTON     MOCLDY    41  24  51 NW24G33   29.71R                  
DOVER          FAIR      42  24  48 W20G31    29.72R                  
GEORGETOWN     FAIR      44  25  47 NW15G26   29.76R                  
EASTON         FAIR      42  25  50 W17G31    29.83R                  
PATUXENT       FAIR      42  25  50 W13G24    29.83R                  
OCEAN CITY     FAIR      42  27  55 NW16G26   29.77R                  
WALLOPS ISLAND FAIR      44  25  47 NW18G28   29.80R                  
CAMBRIDGE      PTCLDY    43  25  49 NW13G26   29.81R                  
SALISBURY      FAIR      42  25  50 W20G29    29.78R                  

$$
PAZ001-021-NYZ056-072-MDZ011-DCZ001-230400-
OTHER NEARBY LOCATIONS
  
CITY           SKY/WX    TMP DP  RH WIND       PRES   REMARKS
HARRISBURG     FAIR      38  22  52 NW23      29.74S WCI  27          
STATE COLLEGE  CLOUDY    31  21  66 NW14G24   29.80R WCI  20          
WILLIAMSPORT   CLOUDY    36  21  54 NW15G26   29.71R WCI  27          
BINGHAMTON     LGT SNOW  25  22  88 NW25G37   29.58S VSB 1   WCI   9  
NEW YORK CITY  CLOUDY    41  30  65 VRB5G31   29.54R                  
BALTIMORE      FAIR      40  23  50 W18G24    29.79R WCI  31          
WASHINGTON DC  FAIR      43  24  47 NW24G41   29.83R                  

$$